Data supplied by UK-AIR on 3/6/2020
All Data GMT hour ending  NB:  Upto 29/01/2019 PM10 were measured with a TEOM FDMS, from 29/01/2019 PM10 were measured with a BAM 1020 heated
Status: R =Ratified P=Provisional,P*=As supplied
,,Ealing Horn Lane,,,,,,,,,,,,,,,,,,,,,,,
Date,time,"PM<sub>10</sub> particulate matter (Hourly measured)",status,unit,"Non-volatile PM<sub>10</sub> (Hourly measured)",status,unit,"Volatile PM<sub>10</sub> (Hourly measured)",status,unit
 
01-01-2019,01:00,35.700,R,ugm-3 (TEOM FDMS),32.200,R,ugm-3 (TEOM FDMS),3.500,R,ugm-3 (TEOM FDMS)
01-01-2019,02:00,18.000,R,ugm-3 (TEOM FDMS),15.200,R,ugm-3 (TEOM FDMS),2.800,R,ugm-3 (TEOM FDMS)
01-01-2019,03:00,14.400,R,ugm-3 (TEOM FDMS),10.400,R,ugm-3 (TEOM FDMS),4.000,R,ugm-3 (TEOM FDMS)
01-01-2019,04:00,15.000,R,ugm-3 (TEOM FDMS),11.500,R,ugm-3 (TEOM FDMS),3.500,R,ugm-3 (TEOM FDMS)
01-01-2019,05:00,13.300,R,ugm-3 (TEOM FDMS),8.900,R,ugm-3 (TEOM FDMS),4.400,R,ugm-3 (TEOM FDMS)
01-01-2019,06:00,14.900,R,ugm-3 (TEOM FDMS),10.700,R,ugm-3 (TEOM FDMS),4.200,R,ugm-3 (TEOM FDMS)
01-01-2019,07:00,13.700,R,ugm-3 (TEOM FDMS),11.700,R,ugm-3 (TEOM FDMS),2.000,R,ugm-3 (TEOM FDMS)
01-01-2019,08:00,13.000,R,ugm-3 (TEOM FDMS),11.100,R,ugm-3 (TEOM FDMS),1.900,R,ugm-3 (TEOM FDMS)
01-01-2019,09:00,13.500,R,ugm-3 (TEOM FDMS),12.600,R,ugm-3 (TEOM FDMS),0.900,R,ugm-3 (TEOM FDMS)
01-01-2019,10:00,23.000,R,ugm-3 (TEOM FDMS),15.900,R,ugm-3 (TEOM FDMS),7.100,R,ugm-3 (TEOM FDMS)
01-01-2019,11:00,10.200,R,ugm-3 (TEOM FDMS),8.900,R,ugm-3 (TEOM FDMS),1.300,R,ugm-3 (TEOM FDMS)
01-01-2019,12:00,8.700,R,ugm-3 (TEOM FDMS),7.200,R,ugm-3 (TEOM FDMS),1.500,R,ugm-3 (TEOM FDMS)
01-01-2019,13:00,11.200,R,ugm-3 (TEOM FDMS),8.100,R,ugm-3 (TEOM FDMS),3.100,R,ugm-3 (TEOM FDMS)
01-01-2019,14:00,12.100,R,ugm-3 (TEOM FDMS),10.300,R,ugm-3 (TEOM FDMS),1.800,R,ugm-3 (TEOM FDMS)
01-01-2019,15:00,10.900,R,ugm-3 (TEOM FDMS),9.300,R,ugm-3 (TEOM FDMS),1.600,R,ugm-3 (TEOM FDMS)
01-01-2019,16:00,11.900,R,ugm-3 (TEOM FDMS),11.900,R,ugm-3 (TEOM FDMS),0.000,R,ugm-3 (TEOM FDMS)
01-01-2019,17:00,18.100,R,ugm-3 (TEOM FDMS),14.500,R,ugm-3 (TEOM FDMS),3.600,R,ugm-3 (TEOM FDMS)
01-01-2019,18:00,15.300,R,ugm-3 (TEOM FDMS),13.300,R,ugm-3 (TEOM FDMS),2.000,R,ugm-3 (TEOM FDMS)
01-01-2019,19:00,19.800,R,ugm-3 (TEOM FDMS),18.000,R,ugm-3 (TEOM FDMS),1.800,R,ugm-3 (TEOM FDMS)
01-01-2019,20:00,20.200,R,ugm-3 (TEOM FDMS),18.100,R,ugm-3 (TEOM FDMS),2.100,R,ugm-3 (TEOM FDMS)
01-01-2019,21:00,13.700,R,ugm-3 (TEOM FDMS),9.300,R,ugm-3 (TEOM FDMS),4.400,R,ugm-3 (TEOM FDMS)
01-01-2019,22:00,11.600,R,ugm-3 (TEOM FDMS),9.800,R,ugm-3 (TEOM FDMS),1.800,R,ugm-3 (TEOM FDMS)
01-01-2019,23:00,15.400,R,ugm-3 (TEOM FDMS),13.500,R,ugm-3 (TEOM FDMS),1.900,R,ugm-3 (TEOM FDMS)
01-01-2019,24:00,13.800,R,ugm-3 (TEOM FDMS),12.500,R,ugm-3 (TEOM FDMS),1.300,R,ugm-3 (TEOM FDMS)
02-01-2019,01:00,14.800,R,ugm-3 (TEOM FDMS),13.100,R,ugm-3 (TEOM FDMS),1.700,R,ugm-3 (TEOM FDMS)
02-01-2019,02:00,13.700,R,ugm-3 (TEOM FDMS),11.600,R,ugm-3 (TEOM FDMS),2.100,R,ugm-3 (TEOM FDMS)
02-01-2019,03:00,12.600,R,ugm-3 (TEOM FDMS),11.400,R,ugm-3 (TEOM FDMS),1.200,R,ugm-3 (TEOM FDMS)
02-01-2019,04:00,11.900,R,ugm-3 (TEOM FDMS),10.600,R,ugm-3 (TEOM FDMS),1.300,R,ugm-3 (TEOM FDMS)
02-01-2019,05:00,14.000,R,ugm-3 (TEOM FDMS),12.400,R,ugm-3 (TEOM FDMS),1.600,R,ugm-3 (TEOM FDMS)
02-01-2019,06:00,15.600,R,ugm-3 (TEOM FDMS),12.700,R,ugm-3 (TEOM FDMS),2.900,R,ugm-3 (TEOM FDMS)
02-01-2019,07:00,14.700,R,ugm-3 (TEOM FDMS),11.900,R,ugm-3 (TEOM FDMS),2.800,R,ugm-3 (TEOM FDMS)
02-01-2019,08:00,20.000,R,ugm-3 (TEOM FDMS),16.900,R,ugm-3 (TEOM FDMS),3.100,R,ugm-3 (TEOM FDMS)
02-01-2019,09:00,20.100,R,ugm-3 (TEOM FDMS),20.100,R,ugm-3 (TEOM FDMS),0.000,R,ugm-3 (TEOM FDMS)
02-01-2019,10:00,22.800,R,ugm-3 (TEOM FDMS),19.700,R,ugm-3 (TEOM FDMS),3.100,R,ugm-3 (TEOM FDMS)
02-01-2019,11:00,21.700,R,ugm-3 (TEOM FDMS),18.800,R,ugm-3 (TEOM FDMS),2.900,R,ugm-3 (TEOM FDMS)
02-01-2019,12:00,21.500,R,ugm-3 (TEOM FDMS),17.600,R,ugm-3 (TEOM FDMS),3.900,R,ugm-3 (TEOM FDMS)
02-01-2019,13:00,21.600,R,ugm-3 (TEOM FDMS),17.200,R,ugm-3 (TEOM FDMS),4.400,R,ugm-3 (TEOM FDMS)
02-01-2019,14:00,20.700,R,ugm-3 (TEOM FDMS),16.900,R,ugm-3 (TEOM FDMS),3.800,R,ugm-3 (TEOM FDMS)
02-01-2019,15:00,17.400,R,ugm-3 (TEOM FDMS),17.400,R,ugm-3 (TEOM FDMS),0.000,R,ugm-3 (TEOM FDMS)
02-01-2019,16:00,24.200,R,ugm-3 (TEOM FDMS),18.900,R,ugm-3 (TEOM FDMS),5.300,R,ugm-3 (TEOM FDMS)
02-01-2019,17:00,20.100,R,ugm-3 (TEOM FDMS),17.100,R,ugm-3 (TEOM FDMS),3.000,R,ugm-3 (TEOM FDMS)
02-01-2019,18:00,19.700,R,ugm-3 (TEOM FDMS),18.800,R,ugm-3 (TEOM FDMS),0.900,R,ugm-3 (TEOM FDMS)
02-01-2019,19:00,21.700,R,ugm-3 (TEOM FDMS),16.800,R,ugm-3 (TEOM FDMS),4.900,R,ugm-3 (TEOM FDMS)
02-01-2019,20:00,21.100,R,ugm-3 (TEOM FDMS),18.100,R,ugm-3 (TEOM FDMS),3.000,R,ugm-3 (TEOM FDMS)
02-01-2019,21:00,18.100,R,ugm-3 (TEOM FDMS),15.500,R,ugm-3 (TEOM FDMS),2.600,R,ugm-3 (TEOM FDMS)
02-01-2019,22:00,17.000,R,ugm-3 (TEOM FDMS),14.300,R,ugm-3 (TEOM FDMS),2.700,R,ugm-3 (TEOM FDMS)
02-01-2019,23:00,18.000,R,ugm-3 (TEOM FDMS),14.200,R,ugm-3 (TEOM FDMS),3.800,R,ugm-3 (TEOM FDMS)
02-01-2019,24:00,18.500,R,ugm-3 (TEOM FDMS),15.800,R,ugm-3 (TEOM FDMS),2.700,R,ugm-3 (TEOM FDMS)
03-01-2019,01:00,16.600,R,ugm-3 (TEOM FDMS),14.500,R,ugm-3 (TEOM FDMS),2.100,R,ugm-3 (TEOM FDMS)
03-01-2019,02:00,16.500,R,ugm-3 (TEOM FDMS),13.200,R,ugm-3 (TEOM FDMS),3.300,R,ugm-3 (TEOM FDMS)
03-01-2019,03:00,10.700,R,ugm-3 (TEOM FDMS),11.600,R,ugm-3 (TEOM FDMS),-0.900,R,ugm-3 (TEOM FDMS)
03-01-2019,04:00,10.100,R,ugm-3 (TEOM FDMS),8.800,R,ugm-3 (TEOM FDMS),1.300,R,ugm-3 (TEOM FDMS)
03-01-2019,05:00,12.500,R,ugm-3 (TEOM FDMS),10.300,R,ugm-3 (TEOM FDMS),2.200,R,ugm-3 (TEOM FDMS)
03-01-2019,06:00,13.100,R,ugm-3 (TEOM FDMS),11.900,R,ugm-3 (TEOM FDMS),1.200,R,ugm-3 (TEOM FDMS)
03-01-2019,07:00,12.400,R,ugm-3 (TEOM FDMS),9.300,R,ugm-3 (TEOM FDMS),3.100,R,ugm-3 (TEOM FDMS)
03-01-2019,08:00,24.000,R,ugm-3 (TEOM FDMS),22.100,R,ugm-3 (TEOM FDMS),1.900,R,ugm-3 (TEOM FDMS)
03-01-2019,09:00,16.200,R,ugm-3 (TEOM FDMS),11.300,R,ugm-3 (TEOM FDMS),4.900,R,ugm-3 (TEOM FDMS)
03-01-2019,10:00,17.300,R,ugm-3 (TEOM FDMS),14.800,R,ugm-3 (TEOM FDMS),2.500,R,ugm-3 (TEOM FDMS)
03-01-2019,11:00,17.900,R,ugm-3 (TEOM FDMS),15.600,R,ugm-3 (TEOM FDMS),2.300,R,ugm-3 (TEOM FDMS)
03-01-2019,12:00,19.100,R,ugm-3 (TEOM FDMS),16.300,R,ugm-3 (TEOM FDMS),2.800,R,ugm-3 (TEOM FDMS)
03-01-2019,13:00,24.200,R,ugm-3 (TEOM FDMS),20.600,R,ugm-3 (TEOM FDMS),3.600,R,ugm-3 (TEOM FDMS)
03-01-2019,14:00,30.400,R,ugm-3 (TEOM FDMS),28.400,R,ugm-3 (TEOM FDMS),2.000,R,ugm-3 (TEOM FDMS)
03-01-2019,15:00,18.400,R,ugm-3 (TEOM FDMS),14.200,R,ugm-3 (TEOM FDMS),4.200,R,ugm-3 (TEOM FDMS)
03-01-2019,16:00,21.400,R,ugm-3 (TEOM FDMS),18.700,R,ugm-3 (TEOM FDMS),2.700,R,ugm-3 (TEOM FDMS)
03-01-2019,17:00,24.900,R,ugm-3 (TEOM FDMS),23.900,R,ugm-3 (TEOM FDMS),1.000,R,ugm-3 (TEOM FDMS)
03-01-2019,18:00,27.700,R,ugm-3 (TEOM FDMS),24.000,R,ugm-3 (TEOM FDMS),3.700,R,ugm-3 (TEOM FDMS)
03-01-2019,19:00,27.300,R,ugm-3 (TEOM FDMS),21.000,R,ugm-3 (TEOM FDMS),6.300,R,ugm-3 (TEOM FDMS)
03-01-2019,20:00,26.900,R,ugm-3 (TEOM FDMS),22.500,R,ugm-3 (TEOM FDMS),4.400,R,ugm-3 (TEOM FDMS)
03-01-2019,21:00,29.000,R,ugm-3 (TEOM FDMS),25.900,R,ugm-3 (TEOM FDMS),3.100,R,ugm-3 (TEOM FDMS)
03-01-2019,22:00,33.600,R,ugm-3 (TEOM FDMS),29.900,R,ugm-3 (TEOM FDMS),3.700,R,ugm-3 (TEOM FDMS)
03-01-2019,23:00,38.200,R,ugm-3 (TEOM FDMS),34.200,R,ugm-3 (TEOM FDMS),4.000,R,ugm-3 (TEOM FDMS)
03-01-2019,24:00,30.600,R,ugm-3 (TEOM FDMS),23.100,R,ugm-3 (TEOM FDMS),7.500,R,ugm-3 (TEOM FDMS)
04-01-2019,01:00,31.000,R,ugm-3 (TEOM FDMS),24.600,R,ugm-3 (TEOM FDMS),6.400,R,ugm-3 (TEOM FDMS)
04-01-2019,02:00,23.800,R,ugm-3 (TEOM FDMS),19.000,R,ugm-3 (TEOM FDMS),4.800,R,ugm-3 (TEOM FDMS)
04-01-2019,03:00,26.400,R,ugm-3 (TEOM FDMS),20.200,R,ugm-3 (TEOM FDMS),6.200,R,ugm-3 (TEOM FDMS)
04-01-2019,04:00,24.800,R,ugm-3 (TEOM FDMS),18.000,R,ugm-3 (TEOM FDMS),6.800,R,ugm-3 (TEOM FDMS)
04-01-2019,05:00,23.800,R,ugm-3 (TEOM FDMS),18.100,R,ugm-3 (TEOM FDMS),5.700,R,ugm-3 (TEOM FDMS)
04-01-2019,06:00,31.400,R,ugm-3 (TEOM FDMS),24.000,R,ugm-3 (TEOM FDMS),7.400,R,ugm-3 (TEOM FDMS)
04-01-2019,07:00,29.500,R,ugm-3 (TEOM FDMS),23.900,R,ugm-3 (TEOM FDMS),5.600,R,ugm-3 (TEOM FDMS)
04-01-2019,08:00,40.500,R,ugm-3 (TEOM FDMS),32.800,R,ugm-3 (TEOM FDMS),7.700,R,ugm-3 (TEOM FDMS)
04-01-2019,09:00,53.700,R,ugm-3 (TEOM FDMS),42.800,R,ugm-3 (TEOM FDMS),10.900,R,ugm-3 (TEOM FDMS)
04-01-2019,10:00,48.500,R,ugm-3 (TEOM FDMS),37.100,R,ugm-3 (TEOM FDMS),11.400,R,ugm-3 (TEOM FDMS)
04-01-2019,11:00,49.000,R,ugm-3 (TEOM FDMS),37.100,R,ugm-3 (TEOM FDMS),11.900,R,ugm-3 (TEOM FDMS)
04-01-2019,12:00,50.000,R,ugm-3 (TEOM FDMS),41.300,R,ugm-3 (TEOM FDMS),8.700,R,ugm-3 (TEOM FDMS)
04-01-2019,13:00,44.200,R,ugm-3 (TEOM FDMS),34.100,R,ugm-3 (TEOM FDMS),10.100,R,ugm-3 (TEOM FDMS)
04-01-2019,14:00,45.100,R,ugm-3 (TEOM FDMS),36.300,R,ugm-3 (TEOM FDMS),8.800,R,ugm-3 (TEOM FDMS)
04-01-2019,15:00,34.700,R,ugm-3 (TEOM FDMS),27.900,R,ugm-3 (TEOM FDMS),6.800,R,ugm-3 (TEOM FDMS)
04-01-2019,16:00,,,,,,,,,
04-01-2019,17:00,32.700,R,ugm-3 (TEOM FDMS),24.500,R,ugm-3 (TEOM FDMS),8.200,R,ugm-3 (TEOM FDMS)
04-01-2019,18:00,33.300,R,ugm-3 (TEOM FDMS),27.800,R,ugm-3 (TEOM FDMS),5.500,R,ugm-3 (TEOM FDMS)
04-01-2019,19:00,46.700,R,ugm-3 (TEOM FDMS),37.900,R,ugm-3 (TEOM FDMS),8.800,R,ugm-3 (TEOM FDMS)
04-01-2019,20:00,46.600,R,ugm-3 (TEOM FDMS),38.100,R,ugm-3 (TEOM FDMS),8.500,R,ugm-3 (TEOM FDMS)
04-01-2019,21:00,44.000,R,ugm-3 (TEOM FDMS),35.000,R,ugm-3 (TEOM FDMS),9.000,R,ugm-3 (TEOM FDMS)
04-01-2019,22:00,42.700,R,ugm-3 (TEOM FDMS),34.400,R,ugm-3 (TEOM FDMS),8.300,R,ugm-3 (TEOM FDMS)
04-01-2019,23:00,47.000,R,ugm-3 (TEOM FDMS),39.500,R,ugm-3 (TEOM FDMS),7.500,R,ugm-3 (TEOM FDMS)
04-01-2019,24:00,44.900,R,ugm-3 (TEOM FDMS),36.400,R,ugm-3 (TEOM FDMS),8.500,R,ugm-3 (TEOM FDMS)
05-01-2019,01:00,43.400,R,ugm-3 (TEOM FDMS),34.500,R,ugm-3 (TEOM FDMS),8.900,R,ugm-3 (TEOM FDMS)
05-01-2019,02:00,38.900,R,ugm-3 (TEOM FDMS),32.200,R,ugm-3 (TEOM FDMS),6.700,R,ugm-3 (TEOM FDMS)
05-01-2019,03:00,37.100,R,ugm-3 (TEOM FDMS),29.100,R,ugm-3 (TEOM FDMS),8.000,R,ugm-3 (TEOM FDMS)
05-01-2019,04:00,36.200,R,ugm-3 (TEOM FDMS),28.200,R,ugm-3 (TEOM FDMS),8.000,R,ugm-3 (TEOM FDMS)
05-01-2019,05:00,33.200,R,ugm-3 (TEOM FDMS),24.300,R,ugm-3 (TEOM FDMS),8.900,R,ugm-3 (TEOM FDMS)
05-01-2019,06:00,30.400,R,ugm-3 (TEOM FDMS),23.700,R,ugm-3 (TEOM FDMS),6.700,R,ugm-3 (TEOM FDMS)
05-01-2019,07:00,32.500,R,ugm-3 (TEOM FDMS),22.700,R,ugm-3 (TEOM FDMS),9.800,R,ugm-3 (TEOM FDMS)
05-01-2019,08:00,27.600,R,ugm-3 (TEOM FDMS),19.700,R,ugm-3 (TEOM FDMS),7.900,R,ugm-3 (TEOM FDMS)
05-01-2019,09:00,28.100,R,ugm-3 (TEOM FDMS),20.300,R,ugm-3 (TEOM FDMS),7.800,R,ugm-3 (TEOM FDMS)
05-01-2019,10:00,29.000,R,ugm-3 (TEOM FDMS),21.400,R,ugm-3 (TEOM FDMS),7.600,R,ugm-3 (TEOM FDMS)
05-01-2019,11:00,29.800,R,ugm-3 (TEOM FDMS),19.900,R,ugm-3 (TEOM FDMS),9.900,R,ugm-3 (TEOM FDMS)
05-01-2019,12:00,26.400,R,ugm-3 (TEOM FDMS),17.800,R,ugm-3 (TEOM FDMS),8.600,R,ugm-3 (TEOM FDMS)
05-01-2019,13:00,21.900,R,ugm-3 (TEOM FDMS),14.900,R,ugm-3 (TEOM FDMS),7.000,R,ugm-3 (TEOM FDMS)
05-01-2019,14:00,24.600,R,ugm-3 (TEOM FDMS),17.900,R,ugm-3 (TEOM FDMS),6.700,R,ugm-3 (TEOM FDMS)
05-01-2019,15:00,20.700,R,ugm-3 (TEOM FDMS),15.800,R,ugm-3 (TEOM FDMS),4.900,R,ugm-3 (TEOM FDMS)
05-01-2019,16:00,25.200,R,ugm-3 (TEOM FDMS),19.000,R,ugm-3 (TEOM FDMS),6.200,R,ugm-3 (TEOM FDMS)
05-01-2019,17:00,26.200,R,ugm-3 (TEOM FDMS),20.700,R,ugm-3 (TEOM FDMS),5.500,R,ugm-3 (TEOM FDMS)
05-01-2019,18:00,28.800,R,ugm-3 (TEOM FDMS),22.300,R,ugm-3 (TEOM FDMS),6.500,R,ugm-3 (TEOM FDMS)
05-01-2019,19:00,30.300,R,ugm-3 (TEOM FDMS),24.300,R,ugm-3 (TEOM FDMS),6.000,R,ugm-3 (TEOM FDMS)
05-01-2019,20:00,30.000,R,ugm-3 (TEOM FDMS),23.700,R,ugm-3 (TEOM FDMS),6.300,R,ugm-3 (TEOM FDMS)
05-01-2019,21:00,31.600,R,ugm-3 (TEOM FDMS),25.800,R,ugm-3 (TEOM FDMS),5.800,R,ugm-3 (TEOM FDMS)
05-01-2019,22:00,26.200,R,ugm-3 (TEOM FDMS),21.900,R,ugm-3 (TEOM FDMS),4.300,R,ugm-3 (TEOM FDMS)
05-01-2019,23:00,32.300,R,ugm-3 (TEOM FDMS),24.400,R,ugm-3 (TEOM FDMS),7.900,R,ugm-3 (TEOM FDMS)
05-01-2019,24:00,37.700,R,ugm-3 (TEOM FDMS),29.200,R,ugm-3 (TEOM FDMS),8.500,R,ugm-3 (TEOM FDMS)
06-01-2019,01:00,29.700,R,ugm-3 (TEOM FDMS),23.100,R,ugm-3 (TEOM FDMS),6.600,R,ugm-3 (TEOM FDMS)
06-01-2019,02:00,28.200,R,ugm-3 (TEOM FDMS),23.300,R,ugm-3 (TEOM FDMS),4.900,R,ugm-3 (TEOM FDMS)
06-01-2019,03:00,27.000,R,ugm-3 (TEOM FDMS),21.100,R,ugm-3 (TEOM FDMS),5.900,R,ugm-3 (TEOM FDMS)
06-01-2019,04:00,27.900,R,ugm-3 (TEOM FDMS),20.100,R,ugm-3 (TEOM FDMS),7.800,R,ugm-3 (TEOM FDMS)
06-01-2019,05:00,26.300,R,ugm-3 (TEOM FDMS),18.800,R,ugm-3 (TEOM FDMS),7.500,R,ugm-3 (TEOM FDMS)
06-01-2019,06:00,26.100,R,ugm-3 (TEOM FDMS),20.900,R,ugm-3 (TEOM FDMS),5.200,R,ugm-3 (TEOM FDMS)
06-01-2019,07:00,31.000,R,ugm-3 (TEOM FDMS),23.300,R,ugm-3 (TEOM FDMS),7.700,R,ugm-3 (TEOM FDMS)
06-01-2019,08:00,27.900,R,ugm-3 (TEOM FDMS),21.800,R,ugm-3 (TEOM FDMS),6.100,R,ugm-3 (TEOM FDMS)
06-01-2019,09:00,30.100,R,ugm-3 (TEOM FDMS),23.700,R,ugm-3 (TEOM FDMS),6.400,R,ugm-3 (TEOM FDMS)
06-01-2019,10:00,29.900,R,ugm-3 (TEOM FDMS),23.600,R,ugm-3 (TEOM FDMS),6.300,R,ugm-3 (TEOM FDMS)
06-01-2019,11:00,24.000,R,ugm-3 (TEOM FDMS),19.300,R,ugm-3 (TEOM FDMS),4.700,R,ugm-3 (TEOM FDMS)
06-01-2019,12:00,22.900,R,ugm-3 (TEOM FDMS),18.700,R,ugm-3 (TEOM FDMS),4.200,R,ugm-3 (TEOM FDMS)
06-01-2019,13:00,24.000,R,ugm-3 (TEOM FDMS),19.600,R,ugm-3 (TEOM FDMS),4.400,R,ugm-3 (TEOM FDMS)
06-01-2019,14:00,23.900,R,ugm-3 (TEOM FDMS),19.600,R,ugm-3 (TEOM FDMS),4.300,R,ugm-3 (TEOM FDMS)
06-01-2019,15:00,31.300,R,ugm-3 (TEOM FDMS),27.800,R,ugm-3 (TEOM FDMS),3.500,R,ugm-3 (TEOM FDMS)
06-01-2019,16:00,31.900,R,ugm-3 (TEOM FDMS),25.700,R,ugm-3 (TEOM FDMS),6.200,R,ugm-3 (TEOM FDMS)
06-01-2019,17:00,36.600,R,ugm-3 (TEOM FDMS),31.600,R,ugm-3 (TEOM FDMS),5.000,R,ugm-3 (TEOM FDMS)
06-01-2019,18:00,29.300,R,ugm-3 (TEOM FDMS),24.900,R,ugm-3 (TEOM FDMS),4.400,R,ugm-3 (TEOM FDMS)
06-01-2019,19:00,33.900,R,ugm-3 (TEOM FDMS),28.200,R,ugm-3 (TEOM FDMS),5.700,R,ugm-3 (TEOM FDMS)
06-01-2019,20:00,28.400,R,ugm-3 (TEOM FDMS),24.900,R,ugm-3 (TEOM FDMS),3.500,R,ugm-3 (TEOM FDMS)
06-01-2019,21:00,26.800,R,ugm-3 (TEOM FDMS),21.400,R,ugm-3 (TEOM FDMS),5.400,R,ugm-3 (TEOM FDMS)
06-01-2019,22:00,29.300,R,ugm-3 (TEOM FDMS),26.500,R,ugm-3 (TEOM FDMS),2.800,R,ugm-3 (TEOM FDMS)
06-01-2019,23:00,34.300,R,ugm-3 (TEOM FDMS),27.700,R,ugm-3 (TEOM FDMS),6.600,R,ugm-3 (TEOM FDMS)
06-01-2019,24:00,34.000,R,ugm-3 (TEOM FDMS),28.300,R,ugm-3 (TEOM FDMS),5.700,R,ugm-3 (TEOM FDMS)
07-01-2019,01:00,33.400,R,ugm-3 (TEOM FDMS),25.500,R,ugm-3 (TEOM FDMS),7.900,R,ugm-3 (TEOM FDMS)
07-01-2019,02:00,24.300,R,ugm-3 (TEOM FDMS),20.300,R,ugm-3 (TEOM FDMS),4.000,R,ugm-3 (TEOM FDMS)
07-01-2019,03:00,23.800,R,ugm-3 (TEOM FDMS),18.300,R,ugm-3 (TEOM FDMS),5.500,R,ugm-3 (TEOM FDMS)
07-01-2019,04:00,19.100,R,ugm-3 (TEOM FDMS),11.900,R,ugm-3 (TEOM FDMS),7.200,R,ugm-3 (TEOM FDMS)
07-01-2019,05:00,13.000,R,ugm-3 (TEOM FDMS),11.000,R,ugm-3 (TEOM FDMS),2.000,R,ugm-3 (TEOM FDMS)
07-01-2019,06:00,22.300,R,ugm-3 (TEOM FDMS),16.500,R,ugm-3 (TEOM FDMS),5.800,R,ugm-3 (TEOM FDMS)
07-01-2019,07:00,30.300,R,ugm-3 (TEOM FDMS),24.900,R,ugm-3 (TEOM FDMS),5.400,R,ugm-3 (TEOM FDMS)
07-01-2019,08:00,46.500,R,ugm-3 (TEOM FDMS),42.500,R,ugm-3 (TEOM FDMS),4.000,R,ugm-3 (TEOM FDMS)
07-01-2019,09:00,35.100,R,ugm-3 (TEOM FDMS),31.900,R,ugm-3 (TEOM FDMS),3.200,R,ugm-3 (TEOM FDMS)
07-01-2019,10:00,37.300,R,ugm-3 (TEOM FDMS),33.100,R,ugm-3 (TEOM FDMS),4.200,R,ugm-3 (TEOM FDMS)
07-01-2019,11:00,31.600,R,ugm-3 (TEOM FDMS),27.400,R,ugm-3 (TEOM FDMS),4.200,R,ugm-3 (TEOM FDMS)
07-01-2019,12:00,32.500,R,ugm-3 (TEOM FDMS),26.600,R,ugm-3 (TEOM FDMS),5.900,R,ugm-3 (TEOM FDMS)
07-01-2019,13:00,35.400,R,ugm-3 (TEOM FDMS),29.900,R,ugm-3 (TEOM FDMS),5.500,R,ugm-3 (TEOM FDMS)
07-01-2019,14:00,28.600,R,ugm-3 (TEOM FDMS),23.500,R,ugm-3 (TEOM FDMS),5.100,R,ugm-3 (TEOM FDMS)
07-01-2019,15:00,25.300,R,ugm-3 (TEOM FDMS),19.200,R,ugm-3 (TEOM FDMS),6.100,R,ugm-3 (TEOM FDMS)
07-01-2019,16:00,21.600,R,ugm-3 (TEOM FDMS),16.000,R,ugm-3 (TEOM FDMS),5.600,R,ugm-3 (TEOM FDMS)
07-01-2019,17:00,15.000,R,ugm-3 (TEOM FDMS),12.100,R,ugm-3 (TEOM FDMS),2.900,R,ugm-3 (TEOM FDMS)
07-01-2019,18:00,14.700,R,ugm-3 (TEOM FDMS),11.600,R,ugm-3 (TEOM FDMS),3.100,R,ugm-3 (TEOM FDMS)
07-01-2019,19:00,19.600,R,ugm-3 (TEOM FDMS),14.200,R,ugm-3 (TEOM FDMS),5.400,R,ugm-3 (TEOM FDMS)
07-01-2019,20:00,19.900,R,ugm-3 (TEOM FDMS),14.300,R,ugm-3 (TEOM FDMS),5.600,R,ugm-3 (TEOM FDMS)
07-01-2019,21:00,21.700,R,ugm-3 (TEOM FDMS),14.200,R,ugm-3 (TEOM FDMS),7.500,R,ugm-3 (TEOM FDMS)
07-01-2019,22:00,12.400,R,ugm-3 (TEOM FDMS),7.200,R,ugm-3 (TEOM FDMS),5.200,R,ugm-3 (TEOM FDMS)
07-01-2019,23:00,13.000,R,ugm-3 (TEOM FDMS),8.600,R,ugm-3 (TEOM FDMS),4.400,R,ugm-3 (TEOM FDMS)
07-01-2019,24:00,14.500,R,ugm-3 (TEOM FDMS),3.700,R,ugm-3 (TEOM FDMS),10.800,R,ugm-3 (TEOM FDMS)
08-01-2019,01:00,17.600,R,ugm-3 (TEOM FDMS),10.700,R,ugm-3 (TEOM FDMS),6.900,R,ugm-3 (TEOM FDMS)
08-01-2019,02:00,11.400,R,ugm-3 (TEOM FDMS),8.900,R,ugm-3 (TEOM FDMS),2.500,R,ugm-3 (TEOM FDMS)
08-01-2019,03:00,12.900,R,ugm-3 (TEOM FDMS),8.000,R,ugm-3 (TEOM FDMS),4.900,R,ugm-3 (TEOM FDMS)
08-01-2019,04:00,13.200,R,ugm-3 (TEOM FDMS),10.300,R,ugm-3 (TEOM FDMS),2.900,R,ugm-3 (TEOM FDMS)
08-01-2019,05:00,12.500,R,ugm-3 (TEOM FDMS),9.800,R,ugm-3 (TEOM FDMS),2.700,R,ugm-3 (TEOM FDMS)
08-01-2019,06:00,24.300,R,ugm-3 (TEOM FDMS),20.500,R,ugm-3 (TEOM FDMS),3.800,R,ugm-3 (TEOM FDMS)
08-01-2019,07:00,20.700,R,ugm-3 (TEOM FDMS),17.200,R,ugm-3 (TEOM FDMS),3.500,R,ugm-3 (TEOM FDMS)
08-01-2019,08:00,19.300,R,ugm-3 (TEOM FDMS),17.300,R,ugm-3 (TEOM FDMS),2.000,R,ugm-3 (TEOM FDMS)
08-01-2019,09:00,15.800,R,ugm-3 (TEOM FDMS),6.600,R,ugm-3 (TEOM FDMS),9.200,R,ugm-3 (TEOM FDMS)
08-01-2019,10:00,24.100,R,ugm-3 (TEOM FDMS),26.600,R,ugm-3 (TEOM FDMS),-2.500,R,ugm-3 (TEOM FDMS)
08-01-2019,11:00,28.900,R,ugm-3 (TEOM FDMS),29.400,R,ugm-3 (TEOM FDMS),-0.500,R,ugm-3 (TEOM FDMS)
08-01-2019,12:00,33.700,R,ugm-3 (TEOM FDMS),30.300,R,ugm-3 (TEOM FDMS),3.400,R,ugm-3 (TEOM FDMS)
08-01-2019,13:00,32.700,R,ugm-3 (TEOM FDMS),27.700,R,ugm-3 (TEOM FDMS),5.000,R,ugm-3 (TEOM FDMS)
08-01-2019,14:00,33.800,R,ugm-3 (TEOM FDMS),30.500,R,ugm-3 (TEOM FDMS),3.300,R,ugm-3 (TEOM FDMS)
08-01-2019,15:00,31.800,R,ugm-3 (TEOM FDMS),29.000,R,ugm-3 (TEOM FDMS),2.800,R,ugm-3 (TEOM FDMS)
08-01-2019,16:00,,,,,,,,,
08-01-2019,17:00,38.800,R,ugm-3 (TEOM FDMS),37.500,R,ugm-3 (TEOM FDMS),1.300,R,ugm-3 (TEOM FDMS)
08-01-2019,18:00,36.400,R,ugm-3 (TEOM FDMS),33.900,R,ugm-3 (TEOM FDMS),2.500,R,ugm-3 (TEOM FDMS)
08-01-2019,19:00,42.600,R,ugm-3 (TEOM FDMS),40.200,R,ugm-3 (TEOM FDMS),2.400,R,ugm-3 (TEOM FDMS)
08-01-2019,20:00,34.000,R,ugm-3 (TEOM FDMS),31.400,R,ugm-3 (TEOM FDMS),2.600,R,ugm-3 (TEOM FDMS)
08-01-2019,21:00,30.200,R,ugm-3 (TEOM FDMS),26.300,R,ugm-3 (TEOM FDMS),3.900,R,ugm-3 (TEOM FDMS)
08-01-2019,22:00,28.600,R,ugm-3 (TEOM FDMS),27.000,R,ugm-3 (TEOM FDMS),1.600,R,ugm-3 (TEOM FDMS)
08-01-2019,23:00,30.100,R,ugm-3 (TEOM FDMS),24.700,R,ugm-3 (TEOM FDMS),5.400,R,ugm-3 (TEOM FDMS)
08-01-2019,24:00,31.000,R,ugm-3 (TEOM FDMS),24.800,R,ugm-3 (TEOM FDMS),6.200,R,ugm-3 (TEOM FDMS)
09-01-2019,01:00,21.100,R,ugm-3 (TEOM FDMS),17.400,R,ugm-3 (TEOM FDMS),3.700,R,ugm-3 (TEOM FDMS)
09-01-2019,02:00,18.400,R,ugm-3 (TEOM FDMS),13.900,R,ugm-3 (TEOM FDMS),4.500,R,ugm-3 (TEOM FDMS)
09-01-2019,03:00,16.600,R,ugm-3 (TEOM FDMS),13.800,R,ugm-3 (TEOM FDMS),2.800,R,ugm-3 (TEOM FDMS)
09-01-2019,04:00,15.100,R,ugm-3 (TEOM FDMS),12.300,R,ugm-3 (TEOM FDMS),2.800,R,ugm-3 (TEOM FDMS)
09-01-2019,05:00,11.500,R,ugm-3 (TEOM FDMS),7.500,R,ugm-3 (TEOM FDMS),4.000,R,ugm-3 (TEOM FDMS)
09-01-2019,06:00,13.400,R,ugm-3 (TEOM FDMS),9.300,R,ugm-3 (TEOM FDMS),4.100,R,ugm-3 (TEOM FDMS)
09-01-2019,07:00,20.000,R,ugm-3 (TEOM FDMS),16.200,R,ugm-3 (TEOM FDMS),3.800,R,ugm-3 (TEOM FDMS)
09-01-2019,08:00,20.400,R,ugm-3 (TEOM FDMS),19.100,R,ugm-3 (TEOM FDMS),1.300,R,ugm-3 (TEOM FDMS)
09-01-2019,09:00,21.000,R,ugm-3 (TEOM FDMS),16.200,R,ugm-3 (TEOM FDMS),4.800,R,ugm-3 (TEOM FDMS)
09-01-2019,10:00,20.800,R,ugm-3 (TEOM FDMS),18.200,R,ugm-3 (TEOM FDMS),2.600,R,ugm-3 (TEOM FDMS)
09-01-2019,11:00,19.100,R,ugm-3 (TEOM FDMS),17.800,R,ugm-3 (TEOM FDMS),1.300,R,ugm-3 (TEOM FDMS)
09-01-2019,12:00,23.800,R,ugm-3 (TEOM FDMS),21.200,R,ugm-3 (TEOM FDMS),2.600,R,ugm-3 (TEOM FDMS)
09-01-2019,13:00,17.600,R,ugm-3 (TEOM FDMS),14.900,R,ugm-3 (TEOM FDMS),2.700,R,ugm-3 (TEOM FDMS)
09-01-2019,14:00,24.300,R,ugm-3 (TEOM FDMS),20.600,R,ugm-3 (TEOM FDMS),3.700,R,ugm-3 (TEOM FDMS)
09-01-2019,15:00,22.900,R,ugm-3 (TEOM FDMS),19.400,R,ugm-3 (TEOM FDMS),3.500,R,ugm-3 (TEOM FDMS)
09-01-2019,16:00,24.600,R,ugm-3 (TEOM FDMS),23.300,R,ugm-3 (TEOM FDMS),1.300,R,ugm-3 (TEOM FDMS)
09-01-2019,17:00,23.600,R,ugm-3 (TEOM FDMS),20.800,R,ugm-3 (TEOM FDMS),2.800,R,ugm-3 (TEOM FDMS)
09-01-2019,18:00,22.200,R,ugm-3 (TEOM FDMS),19.600,R,ugm-3 (TEOM FDMS),2.600,R,ugm-3 (TEOM FDMS)
09-01-2019,19:00,19.200,R,ugm-3 (TEOM FDMS),15.700,R,ugm-3 (TEOM FDMS),3.500,R,ugm-3 (TEOM FDMS)
09-01-2019,20:00,19.100,R,ugm-3 (TEOM FDMS),16.300,R,ugm-3 (TEOM FDMS),2.800,R,ugm-3 (TEOM FDMS)
09-01-2019,21:00,20.800,R,ugm-3 (TEOM FDMS),16.400,R,ugm-3 (TEOM FDMS),4.400,R,ugm-3 (TEOM FDMS)
09-01-2019,22:00,21.100,R,ugm-3 (TEOM FDMS),16.100,R,ugm-3 (TEOM FDMS),5.000,R,ugm-3 (TEOM FDMS)
09-01-2019,23:00,18.900,R,ugm-3 (TEOM FDMS),14.700,R,ugm-3 (TEOM FDMS),4.200,R,ugm-3 (TEOM FDMS)
09-01-2019,24:00,22.000,R,ugm-3 (TEOM FDMS),15.100,R,ugm-3 (TEOM FDMS),6.900,R,ugm-3 (TEOM FDMS)
10-01-2019,01:00,21.300,R,ugm-3 (TEOM FDMS),15.200,R,ugm-3 (TEOM FDMS),6.100,R,ugm-3 (TEOM FDMS)
10-01-2019,02:00,21.400,R,ugm-3 (TEOM FDMS),16.900,R,ugm-3 (TEOM FDMS),4.500,R,ugm-3 (TEOM FDMS)
10-01-2019,03:00,21.800,R,ugm-3 (TEOM FDMS),16.500,R,ugm-3 (TEOM FDMS),5.300,R,ugm-3 (TEOM FDMS)
10-01-2019,04:00,25.000,R,ugm-3 (TEOM FDMS),18.000,R,ugm-3 (TEOM FDMS),7.000,R,ugm-3 (TEOM FDMS)
10-01-2019,05:00,24.600,R,ugm-3 (TEOM FDMS),20.100,R,ugm-3 (TEOM FDMS),4.500,R,ugm-3 (TEOM FDMS)
10-01-2019,06:00,31.500,R,ugm-3 (TEOM FDMS),24.500,R,ugm-3 (TEOM FDMS),7.000,R,ugm-3 (TEOM FDMS)
10-01-2019,07:00,37.400,R,ugm-3 (TEOM FDMS),28.500,R,ugm-3 (TEOM FDMS),8.900,R,ugm-3 (TEOM FDMS)
10-01-2019,08:00,41.100,R,ugm-3 (TEOM FDMS),33.300,R,ugm-3 (TEOM FDMS),7.800,R,ugm-3 (TEOM FDMS)
10-01-2019,09:00,41.000,R,ugm-3 (TEOM FDMS),33.700,R,ugm-3 (TEOM FDMS),7.300,R,ugm-3 (TEOM FDMS)
10-01-2019,10:00,70.100,R,ugm-3 (TEOM FDMS),62.100,R,ugm-3 (TEOM FDMS),8.000,R,ugm-3 (TEOM FDMS)
10-01-2019,11:00,53.000,R,ugm-3 (TEOM FDMS),44.500,R,ugm-3 (TEOM FDMS),8.500,R,ugm-3 (TEOM FDMS)
10-01-2019,12:00,42.600,R,ugm-3 (TEOM FDMS),34.500,R,ugm-3 (TEOM FDMS),8.100,R,ugm-3 (TEOM FDMS)
10-01-2019,13:00,48.600,R,ugm-3 (TEOM FDMS),39.200,R,ugm-3 (TEOM FDMS),9.400,R,ugm-3 (TEOM FDMS)
10-01-2019,14:00,46.700,R,ugm-3 (TEOM FDMS),37.100,R,ugm-3 (TEOM FDMS),9.600,R,ugm-3 (TEOM FDMS)
10-01-2019,15:00,42.300,R,ugm-3 (TEOM FDMS),33.000,R,ugm-3 (TEOM FDMS),9.300,R,ugm-3 (TEOM FDMS)
10-01-2019,16:00,37.900,R,ugm-3 (TEOM FDMS),30.700,R,ugm-3 (TEOM FDMS),7.200,R,ugm-3 (TEOM FDMS)
10-01-2019,17:00,37.000,R,ugm-3 (TEOM FDMS),30.400,R,ugm-3 (TEOM FDMS),6.600,R,ugm-3 (TEOM FDMS)
10-01-2019,18:00,37.400,R,ugm-3 (TEOM FDMS),30.600,R,ugm-3 (TEOM FDMS),6.800,R,ugm-3 (TEOM FDMS)
10-01-2019,19:00,37.000,R,ugm-3 (TEOM FDMS),30.500,R,ugm-3 (TEOM FDMS),6.500,R,ugm-3 (TEOM FDMS)
10-01-2019,20:00,42.300,R,ugm-3 (TEOM FDMS),33.900,R,ugm-3 (TEOM FDMS),8.400,R,ugm-3 (TEOM FDMS)
10-01-2019,21:00,46.200,R,ugm-3 (TEOM FDMS),38.200,R,ugm-3 (TEOM FDMS),8.000,R,ugm-3 (TEOM FDMS)
10-01-2019,22:00,42.800,R,ugm-3 (TEOM FDMS),33.900,R,ugm-3 (TEOM FDMS),8.900,R,ugm-3 (TEOM FDMS)
10-01-2019,23:00,38.800,R,ugm-3 (TEOM FDMS),31.100,R,ugm-3 (TEOM FDMS),7.700,R,ugm-3 (TEOM FDMS)
10-01-2019,24:00,30.100,R,ugm-3 (TEOM FDMS),24.300,R,ugm-3 (TEOM FDMS),5.800,R,ugm-3 (TEOM FDMS)
11-01-2019,01:00,19.900,R,ugm-3 (TEOM FDMS),12.200,R,ugm-3 (TEOM FDMS),7.700,R,ugm-3 (TEOM FDMS)
11-01-2019,02:00,20.200,R,ugm-3 (TEOM FDMS),14.300,R,ugm-3 (TEOM FDMS),5.900,R,ugm-3 (TEOM FDMS)
11-01-2019,03:00,17.700,R,ugm-3 (TEOM FDMS),14.100,R,ugm-3 (TEOM FDMS),3.600,R,ugm-3 (TEOM FDMS)
11-01-2019,04:00,22.100,R,ugm-3 (TEOM FDMS),15.600,R,ugm-3 (TEOM FDMS),6.500,R,ugm-3 (TEOM FDMS)